#timestamp,LO_Frequency,Hit,StdDev 
1614870015.6,286047002.8,P
1614870035.4,286047000.7,N
1614870055.2,286046999.9,N
1614870075.1,286046999.8,N
1614870076.0,286046999.8,N
1614870095.8,286047002.5,N
1614870115.7,286047004.0,N
1614870135.5,286047003.1,N
1614870155.3,286047005.6,Y
1614870175.2,286047001.6,P
1614870195.0,286046999.7,N
1614870195.9,286046999.7,N
1614870215.7,286047002.0,N
1614870235.6,286047003.3,Y
1614870255.4,286047002.1,P
1614870275.3,286047004.0,P
1614870295.1,286047003.7,N
1614870296.0,286047003.7,N
1614870315.8,286047003.4,N
1614870335.7,286047005.0,Y
1614870355.5,286047002.9,P
1614870375.3,286047003.1,P
1614870395.2,286047005.6,P
1614870415.0,286047006.3,Y
1614870415.9,286047006.3,P
1614870435.8,286047005.8,P
1614870455.6,286047004.8,P
1614870475.4,286047009.0,Y
1614870495.3,286047004.0,P
1614870515.1,286047005.9,P
1614870535.9,286047008.2,P
1614870555.7,286047011.6,Y
1614870575.5,286047003.4,P
1614870595.4,286047005.8,P
1614870615.2,286047001.8,N
1614870635.0,286047004.3,N
1614870635.9,286047004.3,N
1614870655.8,286047004.7,Y
1614870675.6,286047004.4,P
1614870695.5,286047005.7,P
1614870715.3,286047007.2,P
1614870735.1,286047007.8,Y
1614870755.9,286047002.9,P
1614870775.7,286047007.1,P
1614870795.6,286047007.3,P
1614870815.4,286047004.5,N
1614870835.2,286047006.5,Y
1614870855.1,286047001.5,P
1614870856.0,286047001.5,N
1614870875.8,286047000.1,N
1614870895.6,286047004.0,N
1614870915.5,286047005.1,N
1614870935.3,286047008.4,Y
1614870955.2,286047005.0,P
1614870975.9,286047009.1,P
1614870995.7,286047011.8,P
1614871015.6,286047015.4,Y
1614871035.4,286047007.8,P
1614871055.2,286047008.0,P
1614871075.1,286047010.4,P
1614871076.0,286047010.4,Y
1614871095.8,286047003.5,P
1614871115.7,286047005.2,N
1614871135.5,286047005.2,N
1614871155.3,286047004.5,N
1614871175.2,286047006.1,Y
1614871195.0,286047002.1,P
1614871195.9,286047002.1,N
1614871215.8,286047003.8,N
1614871235.6,286047004.1,Y
1614871255.4,286047004.4,P
1614871275.3,286047003.5,P
1614871295.1,286047005.6,P
1614871315.8,286047005.4,Y
1614871335.7,286047001.9,P
1614871355.5,286047007.5,P
1614871375.4,286047006.6,N
1614871395.2,286047005.4,N
1614871415.0,286047007.6,Y
1614871415.9,286047007.6,P
1614871435.8,286047000.4,N
1614871455.6,286047004.0,N
1614871475.5,286047002.0,N
1614871495.3,286047001.9,N
1614871515.1,286047005.4,N
1614871535.9,286047005.1,N
1614871555.7,286047004.7,N
1614871575.5,286047007.9,Y
1614871595.4,286047006.9,P
1614871615.2,286047010.8,P
1614871635.1,286047008.4,P
1614871636.0,286047008.4,Y
1614871655.8,286047002.7,P
1614871675.6,286047002.0,N
1614871695.5,286047003.8,N
1614871715.3,286047002.1,N
1614871735.1,286047003.1,N
1614871755.9,286047005.5,N
1614871775.7,286047007.8,Y
1614871795.6,286047001.7,P
1614871815.4,286046996.5,P
1614871835.2,286046995.6,N
1614871855.1,286046992.1,N
1614871856.0,286046992.1,N
1614871875.8,286046990.7,N
1614871895.6,286046987.4,N
1614871915.5,286046988.4,N
1614871935.3,286046984.9,N
1614871955.2,286046982.2,Y
1614871975.9,286046987.2,P
1614871995.7,286046986.6,P
1614872015.6,286046986.3,P
1614872035.4,286046983.7,Y
1614872055.2,286046994.9,P
1614872075.1,286046993.5,N
1614872076.0,286046993.5,N
1614872095.8,286046994.8,N
1614872115.7,286046992.7,Y
1614872135.5,286046998.8,P
1614872155.3,286046997.1,N
1614872175.2,286046996.6,N
1614872195.0,286046995.2,N
1614872195.9,286046995.2,N
1614872215.7,286046995.9,N
1614872235.6,286046995.6,N
1614872255.4,286046994.2,Y
1614872275.3,286046997.2,P
1614872295.1,286046996.1,P
1614872296.0,286046996.1,P
1614872315.8,286046996.3,Y
1614872335.7,286046996.6,P
1614872355.5,286047000.8,P
1614872375.4,286046996.5,N
1614872395.2,286046997.3,N
1614872415.0,286046998.0,N
1614872415.9,286046998.0,N
1614872435.8,286046998.0,N
1614872455.6,286046996.0,N
1614872475.4,286046994.2,Y
1614872495.3,286046996.1,P
1614872515.1,286046993.4,P
1614872535.9,286046994.4,P
1614872555.7,286046990.2,Y
1614872575.5,286046997.7,P
1614872595.4,286046995.2,P
1614872615.2,286046995.8,P
1614872635.0,286046995.3,Y
1614872635.9,286046995.3,P
1614872655.8,286046999.1,N
1614872675.6,286046998.4,N
1614872695.5,286046996.6,N
1614872715.3,286046998.9,N
1614872735.1,286046997.4,N
1614872755.9,286046996.8,N
1614872775.7,286046997.0,N
1614872795.5,286046999.0,N
1614872815.4,286046998.3,N
1614872835.2,286046998.6,N
1614872855.1,286047000.4,N
1614872856.0,286047000.4,N
1614872875.8,286047002.1,N
1614872895.6,286047001.8,N
1614872915.5,286047004.4,N
1614872935.3,286047002.8,N
1614872955.1,286047003.2,N
1614872975.9,286047003.5,N
1614872995.7,286047003.1,N
1614873015.6,286047006.0,N
1614873035.4,286047002.2,N
1614873055.2,286047001.9,N
1614873075.1,286047001.3,N
1614873076.0,286047001.3,N
1614873095.8,286046999.9,N
1614873115.6,286047000.0,N
1614873135.5,286047000.4,N
1614873155.3,286047000.7,N
1614873175.2,286047001.1,N
1614873195.9,286046999.0,N
1614873215.7,286046997.3,N
1614873235.6,286046994.9,N
1614873255.4,286046997.3,N
1614873275.2,286046996.6,N
1614873295.1,286046999.1,N
1614873296.0,286046999.1,N
1614873315.8,286046998.5,N
1614873335.7,286046999.9,N
1614873355.5,286046998.0,N
1614873375.3,286046997.4,N
1614873395.2,286046998.6,N
1614873415.9,286046996.9,N
1614873435.7,286046998.1,N
1614873455.6,286046999.2,N
1614873475.4,286047000.4,N
1614873495.3,286046997.1,N
1614873515.1,286046994.9,N
1614873516.0,286046994.9,N
1614873535.8,286046996.5,N
1614873555.7,286046998.1,N
1614873575.5,286046998.6,N
1614873595.3,286046995.8,N
